| time (UTC) | temp C | wind direction | speed KPH | gust KPH | rain 1hr cm | rain 24hr cm | rain mn cm | humidity % | barometer mb |
| 20260508055002 | 7 | 122 | 0.0 | 3.2 | 0.00 | 0.00 | 0.00 | 72 | 1012.8 |
| 20260508054902 | 8 | 121 | 0.0 | 3.2 | 0.00 | 0.00 | 0.00 | 72 | 1013.0 |
| 20260508054802 | 8 | 121 | 0.0 | 3.2 | 0.00 | 0.00 | 0.00 | 71 | 1012.9 |
| 20260508054602 | 8 | 120 | 0.0 | 3.2 | 0.00 | 0.00 | 0.00 | 71 | 1012.9 |
| 20260508054223 | 7 | 118 | 0.0 | 3.2 | 0.00 | 0.00 | 0.00 | 71 | 1012.9 |
| 20260508054123 | 8 | 119 | 0.0 | 3.2 | 0.00 | 0.00 | 0.00 | 70 | 1012.8 |
| 20260508054002 | 8 | 120 | 0.0 | 3.2 | 0.00 | 0.00 | 0.00 | 71 | 1013.0 |
| 20260508053802 | 8 | 120 | 0.0 | 3.2 | 0.00 | 0.00 | 0.00 | 70 | 1013.0 |
| 20260508053602 | 8 | 123 | 0.0 | 3.2 | 0.00 | 0.00 | 0.00 | 70 | 1013.0 |
| 20260508053403 | 8 | 126 | 0.0 | 3.2 | 0.00 | 0.00 | 0.00 | 70 | 1013.1 |
| 20260508052923 | 7 | 126 | 1.6 | 3.2 | 0.00 | 0.00 | 0.00 | 70 | 1013.0 |
| 20260508052425 | 8 | 131 | 1.6 | 3.2 | 0.00 | 0.00 | 0.00 | 70 | 1013.4 |
| 20260508052307 | 8 | 131 | 1.6 | 3.2 | 0.00 | 0.00 | 0.00 | 69 | 1013.1 |
| 20260508051803 | 7 | 136 | 1.6 | 3.2 | 0.00 | 0.00 | 0.00 | 69 | 1013.2 |
| 20260508051704 | 7 | 136 | 0.0 | 3.2 | 0.00 | 0.00 | 0.00 | 70 | 1013.2 |
| 20260508051623 | 7 | 138 | 1.6 | 3.2 | 0.00 | 0.00 | 0.00 | 70 | 1013.3 |
| 20260508051402 | 7 | 139 | 1.6 | 4.8 | 0.00 | 0.00 | 0.00 | 69 | 1013.3 |
| 20260508050902 | 8 | 138 | 1.6 | 4.8 | 0.00 | 0.00 | 0.00 | 69 | 1013.3 |
| 20260508050802 | 8 | 139 | 1.6 | 4.8 | 0.00 | 0.00 | 0.00 | 69 | 1013.3 |
| 20260508050302 | 8 | 138 | 1.6 | 4.8 | 0.00 | 0.00 | 0.00 | 68 | 1013.2 |
| 20260508050002 | 8 | 142 | 1.6 | 4.8 | 0.00 | 0.00 | 0.00 | 68 | 1013.2 |
| 20260508045902 | 8 | 142 | 1.6 | 4.8 | 0.00 | 0.00 | 0.00 | 68 | 1013.3 |
| 20260508045602 | 8 | 146 | 1.6 | 4.8 | 0.00 | 0.00 | 0.00 | 68 | 1013.3 |
| 20260508045323 | 8 | 147 | 1.6 | 4.8 | 0.00 | 0.00 | 0.00 | 67 | 1013.3 |
| 20260508045202 | 8 | 146 | 1.6 | 6.4 | 0.00 | 0.00 | 0.00 | 68 | 1013.4 |
| 20260508044902 | 8 | 149 | 1.6 | 6.4 | 0.00 | 0.00 | 0.00 | 67 | 1013.3 |
| 20260508044802 | 8 | 146 | 1.6 | 6.4 | 0.00 | 0.00 | 0.00 | 68 | 1013.3 |
| 20260508044702 | 8 | 143 | 1.6 | 6.4 | 0.00 | 0.00 | 0.00 | 68 | 1013.3 |
| 20260508044423 | 8 | 145 | 1.6 | 6.4 | 0.00 | 0.00 | 0.00 | 68 | 1013.3 |
| 20260508044302 | 8 | 144 | 1.6 | 6.4 | 0.00 | 0.00 | 0.00 | 68 | 1013.3 |
| 20260508044102 | 8 | 145 | 1.6 | 6.4 | 0.00 | 0.00 | 0.00 | 68 | 1013.3 |
| 20260508043902 | 8 | 141 | 1.6 | 6.4 | 0.00 | 0.00 | 0.00 | 67 | 1013.3 |
| 20260508043802 | 7 | 143 | 1.6 | 6.4 | 0.00 | 0.00 | 0.00 | 67 | 1013.3 |
| 20260508043623 | 7 | 140 | 1.6 | 6.4 | 0.00 | 0.00 | 0.00 | 68 | 1013.3 |
| 20260508043402 | 7 | 140 | 1.6 | 6.4 | 0.00 | 0.00 | 0.00 | 68 | 1013.4 |
| 20260508043202 | 7 | 138 | 1.6 | 3.2 | 0.00 | 0.00 | 0.00 | 68 | 1013.5 |
| 20260508043102 | 7 | 140 | 1.6 | 3.2 | 0.00 | 0.00 | 0.00 | 68 | 1013.4 |
| 20260508043002 | 7 | 138 | 1.6 | 3.2 | 0.00 | 0.00 | 0.00 | 68 | 1013.5 |
| 20260508042702 | 7 | 135 | 0.0 | 3.2 | 0.00 | 0.00 | 0.00 | 68 | 1013.3 |
| 20260508042602 | 7 | 130 | 0.0 | 3.2 | 0.00 | 0.00 | 0.00 | 67 | 1013.4 |
| 20260508042202 | 7 | 131 | 0.0 | 3.2 | 0.00 | 0.00 | 0.00 | 67 | 1013.4 |
| 20260508042002 | 7 | 131 | 0.0 | 3.2 | 0.00 | 0.00 | 0.00 | 68 | 1013.4 |
| 20260508041923 | 7 | 135 | 0.0 | 3.2 | 0.00 | 0.00 | 0.00 | 67 | 1013.4 |
| 20260508041702 | 7 | 138 | 0.0 | 3.2 | 0.00 | 0.00 | 0.00 | 67 | 1013.4 |
| 20260508041602 | 7 | 135 | 0.0 | 3.2 | 0.00 | 0.00 | 0.00 | 67 | 1013.3 |
| 20260508041523 | 7 | 136 | 0.0 | 3.2 | 0.00 | 0.00 | 0.00 | 68 | 1013.4 |
| 20260508041423 | 7 | 134 | 1.6 | 3.2 | 0.00 | 0.00 | 0.00 | 67 | 1013.3 |
| 20260508041102 | 7 | 145 | 1.6 | 6.4 | 0.00 | 0.00 | 0.00 | 66 | 1013.3 |
| 20260508041002 | 7 | 144 | 1.6 | 6.4 | 0.00 | 0.00 | 0.00 | 66 | 1013.3 |
| 20260508040623 | 7 | 148 | 1.6 | 6.4 | 0.00 | 0.00 | 0.00 | 66 | 1013.2 |
| 20260508040502 | 7 | 148 | 1.6 | 6.4 | 0.00 | 0.00 | 0.00 | 65 | 1013.2 |
| 20260508040202 | 7 | 145 | 1.6 | 4.8 | 0.00 | 0.00 | 0.00 | 66 | 1013.4 |
| 20260508035802 | 7 | 155 | 1.6 | 9.7 | 0.00 | 0.00 | 0.00 | 65 | 1013.3 |
| 20260508035702 | 7 | 155 | 3.2 | 9.7 | 0.00 | 0.00 | 0.00 | 65 | 1013.4 |
| 20260508035602 | 7 | 156 | 3.2 | 9.7 | 0.00 | 0.00 | 0.00 | 65 | 1013.4 |
| 20260508035402 | 7 | 155 | 1.6 | 9.7 | 0.00 | 0.00 | 0.00 | 65 | 1013.4 |
| 20260508035102 | 7 | 153 | 1.6 | 9.7 | 0.00 | 0.00 | 0.00 | 66 | 1013.5 |
| 20260508034902 | 6 | 143 | 0.0 | 9.7 | 0.00 | 0.00 | 0.00 | 67 | 1013.5 |
| 20260508034802 | 6 | 131 | 0.0 | 3.2 | 0.00 | 0.00 | 0.00 | 68 | 1013.4 |
| 20260508034702 | 6 | 126 | 0.0 | 3.2 | 0.00 | 0.00 | 0.00 | 69 | 1013.4 |
| 20260508034402 | 6 | 125 | 0.0 | 1.6 | 0.00 | 0.00 | 0.00 | 70 | 1013.5 |
| 20260508034002 | 6 | 131 | 0.0 | 1.6 | 0.00 | 0.00 | 0.00 | 70 | 1013.3 |
| 20260508033902 | 5 | 135 | 0.0 | 1.6 | 0.00 | 0.00 | 0.00 | 71 | 1013.3 |
| 20260508033802 | 5 | 138 | 0.0 | 1.6 | 0.00 | 0.00 | 0.00 | 73 | 1013.5 |
| 20260508033502 | 5 | 138 | 0.0 | 1.6 | 0.00 | 0.00 | 0.00 | 75 | 1013.4 |
| 20260508033402 | 5 | 138 | 0.0 | 1.6 | 0.00 | 0.00 | 0.00 | 76 | 1013.5 |
| 20260508033102 | 5 | 0 | 0.0 | 0.0 | 0.00 | 0.00 | 0.00 | 77 | 1013.3 |
| 20260508032423 | 4 | 0 | 0.0 | 0.0 | 0.00 | 0.00 | 0.00 | 80 | 1013.4 |
| 20260508032202 | 4 | 0 | 0.0 | 0.0 | 0.00 | 0.00 | 0.00 | 79 | 1013.3 |
| 20260508031902 | 4 | 0 | 0.0 | 0.0 | 0.00 | 0.00 | 0.00 | 79 | 1013.3 |
| 20260508031802 | 4 | 0 | 0.0 | 0.0 | 0.00 | 0.00 | 0.00 | 79 | 1013.4 |
| 20260508031702 | 4 | 0 | 0.0 | 0.0 | 0.00 | 0.00 | 0.00 | 80 | 1013.2 |
| 20260508031602 | 4 | 0 | 0.0 | 0.0 | 0.00 | 0.00 | 0.00 | 79 | 1013.4 |
| 20260508031502 | 4 | 0 | 0.0 | 0.0 | 0.00 | 0.00 | 0.00 | 80 | 1013.3 |
| 20260508031102 | 4 | 0 | 0.0 | 0.0 | 0.00 | 0.00 | 0.00 | 81 | 1013.6 |
| 20260508031023 | 4 | 0 | 0.0 | 0.0 | 0.00 | 0.00 | 0.00 | 81 | 1013.3 |
| 20260508030902 | 4 | 0 | 0.0 | 0.0 | 0.00 | 0.00 | 0.00 | 81 | 1013.4 |
| 20260508030402 | 4 | 0 | 0.0 | 0.0 | 0.00 | 0.00 | 0.00 | 79 | 1013.3 |
| 20260508030302 | 4 | 0 | 0.0 | 0.0 | 0.00 | 0.00 | 0.00 | 79 | 1013.3 |
| 20260508030202 | 5 | 0 | 0.0 | 0.0 | 0.00 | 0.00 | 0.00 | 79 | 1013.3 |
| 20260508030002 | 5 | 0 | 0.0 | 0.0 | 0.00 | 0.00 | 0.00 | 78 | 1013.3 |
| 20260508025902 | 5 | 0 | 0.0 | 0.0 | 0.00 | 0.00 | 0.00 | 78 | 1013.3 |
| 20260508025602 | 5 | 0 | 0.0 | 0.0 | 0.00 | 0.00 | 0.00 | 77 | 1013.3 |
| 20260508025502 | 5 | 0 | 0.0 | 0.0 | 0.00 | 0.00 | 0.00 | 76 | 1013.4 |
| 20260508025402 | 5 | 0 | 0.0 | 0.0 | 0.00 | 0.00 | 0.00 | 77 | 1013.3 |
| 20260508025305 | 5 | 0 | 0.0 | 0.0 | 0.00 | 0.00 | 0.00 | 77 | 1013.4 |
| 20260508025202 | 5 | 0 | 0.0 | 0.0 | 0.00 | 0.00 | 0.00 | 78 | 1013.4 |
| 20260508025102 | 5 | 0 | 0.0 | 0.0 | 0.00 | 0.00 | 0.00 | 78 | 1013.4 |
| 20260508024902 | 5 | 0 | 0.0 | 0.0 | 0.00 | 0.00 | 0.00 | 76 | 1013.3 |
| 20260508024802 | 5 | 0 | 0.0 | 0.0 | 0.00 | 0.00 | 0.00 | 76 | 1013.3 |
| 20260508024602 | 5 | 0 | 0.0 | 0.0 | 0.00 | 0.00 | 0.00 | 77 | 1013.2 |
| 20260508024423 | 4 | 0 | 0.0 | 0.0 | 0.00 | 0.00 | 0.00 | 79 | 1013.3 |
| 20260508024202 | 4 | 0 | 0.0 | 0.0 | 0.00 | 0.00 | 0.00 | 80 | 1013.3 |
| 20260508024102 | 4 | 0 | 0.0 | 0.0 | 0.00 | 0.00 | 0.00 | 80 | 1013.3 |
| 20260508023902 | 4 | 0 | 0.0 | 0.0 | 0.00 | 0.00 | 0.00 | 80 | 1013.3 |
| 20260508023602 | 4 | 0 | 0.0 | 0.0 | 0.00 | 0.00 | 0.00 | 79 | 1013.3 |
| 20260508023523 | 4 | 0 | 0.0 | 0.0 | 0.00 | 0.00 | 0.00 | 79 | 1013.5 |
| 20260508023102 | 5 | 0 | 0.0 | 0.0 | 0.00 | 0.00 | 0.00 | 79 | 1013.2 |
| 20260508022923 | 5 | 0 | 0.0 | 0.0 | 0.00 | 0.00 | 0.00 | 79 | 1013.3 |
| 20260508022003 | 4 | 0 | 0.0 | 0.0 | 0.00 | 0.00 | 0.00 | 80 | 1013.2 |
| 20260508021802 | 4 | 0 | 0.0 | 0.0 | 0.00 | 0.00 | 0.00 | 80 | 1013.3 |
| 20260508021602 | 4 | 0 | 0.0 | 0.0 | 0.00 | 0.00 | 0.00 | 80 | 1013.4 |
| 20260508021502 | 4 | 0 | 0.0 | 0.0 | 0.00 | 0.00 | 0.00 | 79 | 1013.3 |
| 20260508021402 | 4 | 0 | 0.0 | 0.0 | 0.00 | 0.00 | 0.00 | 79 | 1013.2 |
| 20260508020823 | 5 | 0 | 0.0 | 0.0 | 0.00 | 0.00 | 0.00 | 78 | 1013.1 |
| 20260508020602 | 5 | 0 | 0.0 | 0.0 | 0.00 | 0.00 | 0.00 | 78 | 1013.2 |
| 20260508020002 | 5 | 0 | 0.0 | 0.0 | 0.00 | 0.00 | 0.00 | 77 | 1013.2 |
| 20260508015902 | 5 | 0 | 0.0 | 0.0 | 0.00 | 0.00 | 0.00 | 76 | 1013.2 |
| 20260508015702 | 5 | 0 | 0.0 | 0.0 | 0.00 | 0.00 | 0.00 | 76 | 1013.2 |
| 20260508015602 | 5 | 0 | 0.0 | 0.0 | 0.00 | 0.00 | 0.00 | 76 | 1013.1 |
| 20260508015402 | 5 | 0 | 0.0 | 0.0 | 0.00 | 0.00 | 0.00 | 75 | 1013.3 |
| 20260508015202 | 5 | 0 | 0.0 | 0.0 | 0.00 | 0.00 | 0.00 | 76 | 1013.1 |
| 20260508015002 | 5 | 0 | 0.0 | 0.0 | 0.00 | 0.00 | 0.00 | 76 | 1013.2 |
| 20260508014702 | 5 | 0 | 0.0 | 0.0 | 0.00 | 0.00 | 0.00 | 75 | 1013.1 |
| 20260508014602 | 5 | 0 | 0.0 | 0.0 | 0.00 | 0.00 | 0.00 | 74 | 1013.2 |
| 20260508014502 | 5 | 0 | 0.0 | 0.0 | 0.00 | 0.00 | 0.00 | 74 | 1013.2 |
| 20260508014402 | 5 | 0 | 0.0 | 0.0 | 0.00 | 0.00 | 0.00 | 74 | 1013.2 |
| 20260508014102 | 6 | 0 | 0.0 | 0.0 | 0.00 | 0.00 | 0.00 | 73 | 1013.0 |
| 20260508013502 | 6 | 0 | 0.0 | 0.0 | 0.00 | 0.00 | 0.00 | 71 | 1012.9 |
| 20260508013402 | 6 | 0 | 0.0 | 0.0 | 0.00 | 0.00 | 0.00 | 71 | 1013.0 |
| 20260508013102 | 6 | 0 | 0.0 | 0.0 | 0.00 | 0.00 | 0.00 | 70 | 1013.1 |
| 20260508012902 | 6 | 0 | 0.0 | 0.0 | 0.00 | 0.00 | 0.00 | 69 | 1013.0 |
| 20260508012102 | 6 | 0 | 0.0 | 0.0 | 0.00 | 0.00 | 0.00 | 68 | 1013.1 |
| 20260508012002 | 6 | 0 | 0.0 | 0.0 | 0.00 | 0.00 | 0.00 | 68 | 1013.1 |
| 20260508011623 | 7 | 0 | 0.0 | 0.0 | 0.00 | 0.00 | 0.00 | 67 | 1013.0 |
| 20260508011402 | 7 | 0 | 0.0 | 0.0 | 0.00 | 0.00 | 0.00 | 66 | 1013.0 |
| 20260508011302 | 7 | 0 | 0.0 | 0.0 | 0.00 | 0.00 | 0.00 | 67 | 1012.9 |
| 20260508011102 | 7 | 0 | 0.0 | 0.0 | 0.00 | 0.00 | 0.00 | 65 | 1013.1 |
| 20260508011002 | 7 | 0 | 0.0 | 0.0 | 0.00 | 0.00 | 0.00 | 65 | 1012.9 |
| 20260508010824 | 7 | 0 | 0.0 | 0.0 | 0.00 | 0.00 | 0.00 | 65 | 1013.1 |
| 20260508010702 | 7 | 0 | 0.0 | 0.0 | 0.00 | 0.00 | 0.00 | 64 | 1012.9 |
| 20260508010602 | 7 | 0 | 0.0 | 0.0 | 0.00 | 0.00 | 0.00 | 64 | 1012.9 |
| 20260508010002 | 8 | 0 | 0.0 | 0.0 | 0.00 | 0.00 | 0.00 | 61 | 1012.8 |
| 20260508005902 | 8 | 0 | 0.0 | 0.0 | 0.00 | 0.00 | 0.00 | 60 | 1012.9 |
| 20260508005702 | 8 | 0 | 0.0 | 0.0 | 0.00 | 0.00 | 0.00 | 58 | 1012.8 |
| 20260508005402 | 8 | 0 | 0.0 | 0.0 | 0.00 | 0.00 | 0.00 | 57 | 1012.8 |
| 20260508005202 | 8 | 0 | 0.0 | 0.0 | 0.00 | 0.00 | 0.00 | 56 | 1012.9 |
| 20260508004923 | 9 | 0 | 0.0 | 0.0 | 0.00 | 0.00 | 0.00 | 54 | 1012.9 |
| 20260508004702 | 9 | 0 | 0.0 | 0.0 | 0.00 | 0.00 | 0.00 | 51 | 1012.8 |
| 20260508004602 | 9 | 0 | 0.0 | 0.0 | 0.00 | 0.00 | 0.00 | 51 | 1012.9 |
| 20260508004402 | 10 | 0 | 0.0 | 0.0 | 0.00 | 0.00 | 0.00 | 52 | 1013.0 |
| 20260508004302 | 10 | 0 | 0.0 | 0.0 | 0.00 | 0.00 | 0.00 | 50 | 1013.0 |
| 20260508004123 | 10 | 0 | 0.0 | 0.0 | 0.00 | 0.00 | 0.00 | 50 | 1013.1 |
| 20260508004002 | 10 | 111 | 0.0 | 1.6 | 0.00 | 0.00 | 0.00 | 49 | 1012.9 |
| 20260508003802 | 10 | 111 | 0.0 | 3.2 | 0.00 | 0.00 | 0.00 | 48 | 1013.0 |
| 20260508003402 | 10 | 194 | 1.6 | 9.7 | 0.00 | 0.00 | 0.00 | 48 | 1013.1 |
| 20260508002803 | 10 | 96 | 3.2 | 9.7 | 0.00 | 0.00 | 0.00 | 47 | 1012.9 |
| 20260508002502 | 10 | 229 | 3.2 | 9.7 | 0.00 | 0.00 | 0.00 | 46 | 1012.8 |
| 20260508002423 | 10 | 59 | 3.2 | 9.7 | 0.00 | 0.00 | 0.00 | 48 | 1012.9 |
| 20260508002002 | 10 | 206 | 3.2 | 9.7 | 0.00 | 0.00 | 0.00 | 46 | 1012.8 |
| 20260508001802 | 11 | 245 | 3.2 | 9.7 | 0.00 | 0.00 | 0.00 | 46 | 1012.6 |
| 20260508001502 | 11 | 276 | 3.2 | 11.3 | 0.00 | 0.00 | 0.00 | 46 | 1012.7 |
| 20260508001402 | 11 | 255 | 3.2 | 11.3 | 0.00 | 0.00 | 0.00 | 47 | 1012.7 |
| 20260508001223 | 11 | 263 | 3.2 | 11.3 | 0.00 | 0.00 | 0.00 | 46 | 1012.7 |
| 20260508001102 | 11 | 278 | 4.8 | 11.3 | 0.00 | 0.00 | 0.00 | 46 | 1012.7 |
| 20260508000902 | 11 | 300 | 4.8 | 11.3 | 0.00 | 0.00 | 0.00 | 45 | 1012.6 |
| 20260508000404 | 11 | 15 | 3.2 | 11.3 | 0.00 | 0.00 | 0.00 | 45 | 1012.7 |
| 20260508000304 | 11 | 21 | 3.2 | 11.3 | 0.00 | 0.00 | 0.00 | 44 | 1012.6 |
| 20260508000204 | 11 | 42 | 3.2 | 11.3 | 0.00 | 0.00 | 0.00 | 44 | 1012.6 |
| 20260508000123 | 11 | 41 | 3.2 | 11.3 | 0.00 | 0.00 | 0.00 | 44 | 1012.6 |
| 20260508000002 | 11 | 78 | 4.8 | 12.9 | 0.00 | 0.00 | 0.00 | 44 | 1012.4 |
| 20260507235602 | 11 | 6 | 4.8 | 16.1 | 0.00 | 0.00 | 0.00 | 44 | 1012.4 |
| 20260507235402 | 11 | 5 | 4.8 | 16.1 | 0.00 | 0.00 | 0.00 | 44 | 1012.5 |
| 20260507235202 | 11 | 357 | 4.8 | 16.1 | 0.00 | 0.00 | 0.00 | 44 | 1012.5 |
| 20260507235002 | 11 | 346 | 4.8 | 16.1 | 0.00 | 0.00 | 0.00 | 46 | 1012.6 |
| 20260507234902 | 12 | 332 | 4.8 | 16.1 | 0.00 | 0.00 | 0.00 | 44 | 1012.5 |
| 20260507233823 | 12 | 325 | 4.8 | 14.5 | 0.00 | 0.00 | 0.00 | 43 | 1012.3 |
| 20260507233602 | 12 | 328 | 6.4 | 14.5 | 0.00 | 0.00 | 0.00 | 44 | 1012.6 |
| 20260507233202 | 12 | 297 | 6.4 | 14.5 | 0.00 | 0.00 | 0.00 | 43 | 1012.4 |
| 20260507233102 | 12 | 307 | 6.4 | 14.5 | 0.00 | 0.00 | 0.00 | 44 | 1012.5 |
| 20260507232602 | 12 | 313 | 6.4 | 17.7 | 0.00 | 0.00 | 0.00 | 42 | 1012.4 |
| 20260507232523 | 12 | 313 | 6.4 | 17.7 | 0.00 | 0.00 | 0.00 | 43 | 1012.6 |
| 20260507232402 | 12 | 325 | 8.0 | 17.7 | 0.00 | 0.00 | 0.00 | 42 | 1012.7 |
| 20260507232102 | 12 | 321 | 8.0 | 17.7 | 0.00 | 0.00 | 0.00 | 42 | 1012.5 |
| 20260507231923 | 12 | 310 | 9.7 | 24.1 | 0.00 | 0.00 | 0.00 | 42 | 1012.5 |
| 20260507231802 | 12 | 300 | 9.7 | 24.1 | 0.00 | 0.00 | 0.00 | 43 | 1012.4 |
| 20260507231702 | 12 | 292 | 8.0 | 24.1 | 0.00 | 0.00 | 0.00 | 42 | 1012.5 |
| 20260507231602 | 12 | 294 | 9.7 | 24.1 | 0.00 | 0.00 | 0.00 | 42 | 1012.5 |
| 20260507231502 | 12 | 297 | 8.0 | 24.1 | 0.00 | 0.00 | 0.00 | 43 | 1012.4 |
| 20260507231323 | 12 | 299 | 8.0 | 24.1 | 0.00 | 0.00 | 0.00 | 44 | 1012.5 |
| 20260507231002 | 12 | 300 | 8.0 | 24.1 | 0.00 | 0.00 | 0.00 | 42 | 1012.5 |
| 20260507230902 | 12 | 308 | 8.0 | 22.5 | 0.00 | 0.00 | 0.00 | 42 | 1012.4 |
| 20260507230602 | 12 | 318 | 9.7 | 22.5 | 0.00 | 0.00 | 0.00 | 42 | 1012.4 |
| 20260507230502 | 12 | 312 | 9.7 | 22.5 | 0.00 | 0.00 | 0.00 | 43 | 1012.5 |
| 20260507230302 | 12 | 307 | 9.7 | 22.5 | 0.00 | 0.00 | 0.00 | 43 | 1012.6 |
| 20260507230202 | 12 | 300 | 9.7 | 22.5 | 0.00 | 0.00 | 0.00 | 42 | 1012.6 |
| 20260507230003 | 12 | 302 | 9.7 | 20.9 | 0.00 | 0.00 | 0.00 | 42 | 1012.6 |
| 20260507225802 | 12 | 290 | 9.7 | 24.1 | 0.00 | 0.00 | 0.00 | 42 | 1012.6 |
| 20260507225723 | 12 | 288 | 9.7 | 27.4 | 0.00 | 0.00 | 0.00 | 43 | 1012.7 |
| 20260507225602 | 12 | 286 | 11.3 | 27.4 | 0.00 | 0.00 | 0.00 | 42 | 1012.8 |
| 20260507225102 | 12 | 288 | 9.7 | 27.4 | 0.00 | 0.00 | 0.00 | 42 | 1012.6 |
| 20260507225002 | 12 | 294 | 9.7 | 27.4 | 0.00 | 0.00 | 0.00 | 41 | 1012.5 |
| 20260507224903 | 12 | 300 | 9.7 | 27.4 | 0.00 | 0.00 | 0.00 | 42 | 1012.7 |
| 20260507224702 | 12 | 316 | 8.0 | 22.5 | 0.00 | 0.00 | 0.00 | 42 | 1012.4 |
| 20260507224602 | 12 | 316 | 8.0 | 17.7 | 0.00 | 0.00 | 0.00 | 41 | 1012.6 |
| 20260507224302 | 12 | 303 | 8.0 | 14.5 | 0.00 | 0.00 | 0.00 | 42 | 1012.6 |
| 20260507224202 | 12 | 305 | 8.0 | 14.5 | 0.00 | 0.00 | 0.00 | 41 | 1012.5 |
| 20260507224002 | 13 | 306 | 6.4 | 14.5 | 0.00 | 0.00 | 0.00 | 41 | 1012.6 |
| 20260507223602 | 12 | 280 | 8.0 | 20.9 | 0.00 | 0.00 | 0.00 | 42 | 1012.8 |
| 20260507223402 | 13 | 273 | 9.7 | 20.9 | 0.00 | 0.00 | 0.00 | 41 | 1012.5 |
| 20260507223323 | 13 | 281 | 9.7 | 20.9 | 0.00 | 0.00 | 0.00 | 41 | 1012.6 |
| 20260507223102 | 12 | 270 | 9.7 | 24.1 | 0.00 | 0.00 | 0.00 | 44 | 1012.7 |
| 20260507223002 | 12 | 267 | 11.3 | 27.4 | 0.00 | 0.00 | 0.00 | 41 | 1012.7 |
| 20260507222823 | 12 | 261 | 11.3 | 29.0 | 0.00 | 0.00 | 0.00 | 41 | 1012.5 |
| 20260507222723 | 12 | 259 | 11.3 | 29.0 | 0.00 | 0.00 | 0.00 | 41 | 1012.7 |
| 20260507222602 | 12 | 266 | 11.3 | 29.0 | 0.00 | 0.00 | 0.00 | 40 | 1012.5 |
| 20260507222502 | 12 | 264 | 11.3 | 29.0 | 0.00 | 0.00 | 0.00 | 41 | 1012.4 |
| 20260507222202 | 12 | 265 | 11.3 | 29.0 | 0.00 | 0.00 | 0.00 | 42 | 1012.6 |
| 20260507222102 | 12 | 264 | 11.3 | 29.0 | 0.00 | 0.00 | 0.00 | 40 | 1012.7 |
| 20260507222023 | 12 | 267 | 11.3 | 29.0 | 0.00 | 0.00 | 0.00 | 40 | 1012.5 |
| 20260507221902 | 12 | 269 | 11.3 | 25.7 | 0.00 | 0.00 | 0.00 | 40 | 1012.6 |
| 20260507221802 | 12 | 271 | 9.7 | 25.7 | 0.00 | 0.00 | 0.00 | 40 | 1012.7 |
| 20260507221702 | 12 | 281 | 9.7 | 25.7 | 0.00 | 0.00 | 0.00 | 40 | 1012.7 |
| 20260507221602 | 12 | 282 | 9.7 | 25.7 | 0.00 | 0.00 | 0.00 | 41 | 1012.6 |
| 20260507221102 | 12 | 310 | 9.7 | 25.7 | 0.00 | 0.00 | 0.00 | 40 | 1012.7 |
| 20260507220623 | 12 | 327 | 9.7 | 29.0 | 0.00 | 0.00 | 0.00 | 43 | 1012.5 |
| 20260507220502 | 12 | 315 | 9.7 | 29.0 | 0.00 | 0.00 | 0.00 | 41 | 1012.4 |
| 20260507220302 | 12 | 320 | 9.7 | 29.0 | 0.00 | 0.00 | 0.00 | 43 | 1012.5 |
| 20260507220002 | 13 | 318 | 9.7 | 29.0 | 0.00 | 0.00 | 0.00 | 42 | 1012.5 |
| 20260507215702 | 12 | 331 | 9.7 | 20.9 | 0.00 | 0.00 | 0.00 | 45 | 1012.3 |
| 20260507215602 | 12 | 334 | 9.7 | 20.9 | 0.00 | 0.00 | 0.00 | 43 | 1012.5 |
| 20260507215502 | 12 | 347 | 9.7 | 20.9 | 0.00 | 0.00 | 0.00 | 44 | 1012.3 |
| 20260507215402 | 13 | 353 | 9.7 | 22.5 | 0.00 | 0.00 | 0.00 | 43 | 1012.3 |
| 20260507215323 | 13 | 348 | 9.7 | 22.5 | 0.00 | 0.00 | 0.00 | 44 | 1012.2 |
| 20260507215202 | 13 | 353 | 9.7 | 25.7 | 0.00 | 0.00 | 0.00 | 44 | 1012.4 |
| 20260507215102 | 13 | 348 | 11.3 | 27.4 | 0.00 | 0.00 | 0.00 | 45 | 1012.6 |
| 20260507214702 | 12 | 315 | 11.3 | 27.4 | 0.00 | 0.00 | 0.00 | 47 | 1012.5 |
| 20260507214623 | 12 | 312 | 9.7 | 27.4 | 0.00 | 0.00 | 0.00 | 48 | 1012.6 |
| 20260507214102 | 12 | 296 | 8.0 | 24.1 | 0.00 | 0.00 | 0.00 | 49 | 1012.4 |
| 20260507214002 | 12 | 301 | 8.0 | 17.7 | 0.00 | 0.00 | 0.00 | 50 | 1012.3 |
| 20260507213702 | 11 | 298 | 9.7 | 22.5 | 0.00 | 0.00 | 0.00 | 52 | 1012.2 |
| 20260507213423 | 11 | 301 | 9.7 | 22.5 | 0.00 | 0.00 | 0.00 | 51 | 1012.4 |
| 20260507213102 | 11 | 282 | 9.7 | 22.5 | 0.00 | 0.00 | 0.00 | 51 | 1012.4 |
| 20260507213002 | 11 | 287 | 9.7 | 22.5 | 0.00 | 0.00 | 0.00 | 51 | 1012.3 |
| 20260507212902 | 12 | 290 | 8.0 | 22.5 | 0.00 | 0.00 | 0.00 | 50 | 1012.2 |
| 20260507212802 | 12 | 293 | 8.0 | 22.5 | 0.00 | 0.00 | 0.00 | 53 | 1012.3 |
| 20260507212702 | 11 | 281 | 9.7 | 22.5 | 0.00 | 0.00 | 0.00 | 52 | 1012.3 |
| 20260507212623 | 11 | 278 | 9.7 | 22.5 | 0.00 | 0.00 | 0.00 | 53 | 1012.4 |
| 20260507212323 | 12 | 275 | 9.7 | 22.5 | 0.00 | 0.00 | 0.00 | 52 | 1012.3 |
| 20260507211423 | 12 | 281 | 9.7 | 27.4 | 0.00 | 0.00 | 0.00 | 50 | 1012.3 |
| 20260507211002 | 11 | 294 | 9.7 | 27.4 | 0.00 | 0.00 | 0.00 | 52 | 1012.2 |
| 20260507210702 | 12 | 279 | 8.0 | 24.1 | 0.00 | 0.00 | 0.00 | 52 | 1012.3 |
| 20260507210523 | 13 | 269 | 6.4 | 16.1 | 0.00 | 0.00 | 0.00 | 51 | 1012.2 |
| 20260507210423 | 13 | 247 | 6.4 | 14.5 | 0.00 | 0.00 | 0.00 | 50 | 1011.9 |
| 20260507210202 | 12 | 221 | 4.8 | 11.3 | 0.00 | 0.00 | 0.00 | 51 | 1011.8 |
| 20260507205402 | 11 | 12 | 4.8 | 12.9 | 0.00 | 0.00 | 0.00 | 59 | 1011.8 |
| 20260507205202 | 11 | 6 | 4.8 | 12.9 | 0.00 | 0.00 | 0.00 | 60 | 1012.0 |
| 20260507205102 | 11 | 3 | 4.8 | 12.9 | 0.00 | 0.00 | 0.00 | 58 | 1011.9 |
| 20260507204902 | 11 | 18 | 4.8 | 12.9 | 0.00 | 0.00 | 0.00 | 59 | 1011.8 |
| 20260507204502 | 11 | 16 | 6.4 | 12.9 | 0.00 | 0.00 | 0.00 | 58 | 1011.9 |
| 20260507204102 | 11 | 15 | 4.8 | 12.9 | 0.00 | 0.00 | 0.00 | 59 | 1011.8 |
| 20260507203602 | 11 | 7 | 6.4 | 14.5 | 0.00 | 0.00 | 0.00 | 58 | 1011.9 |
| 20260507203402 | 11 | 16 | 6.4 | 14.5 | 0.00 | 0.00 | 0.00 | 57 | 1012.0 |
| 20260507203123 | 11 | 23 | 6.4 | 14.5 | 0.00 | 0.00 | 0.00 | 57 | 1011.9 |
| 20260507203024 | 11 | 26 | 6.4 | 14.5 | 0.00 | 0.00 | 0.00 | 58 | 1011.9 |
| 20260507202802 | 11 | 32 | 6.4 | 16.1 | 0.00 | 0.00 | 0.00 | 57 | 1011.9 |
| 20260507202623 | 11 | 29 | 6.4 | 16.1 | 0.00 | 0.00 | 0.00 | 57 | 1011.8 |
| 20260507202502 | 11 | 29 | 4.8 | 16.1 | 0.00 | 0.00 | 0.00 | 57 | 1011.7 |
| 20260507202402 | 11 | 26 | 4.8 | 16.1 | 0.00 | 0.00 | 0.00 | 57 | 1011.7 |
| 20260507202306 | 11 | 26 | 4.8 | 16.1 | 0.00 | 0.00 | 0.00 | 57 | 1011.9 |
| 20260507201902 | 12 | 12 | 6.4 | 16.1 | 0.00 | 0.00 | 0.00 | 55 | 1011.7 |
| 20260507201602 | 12 | 18 | 4.8 | 11.3 | 0.00 | 0.00 | 0.00 | 55 | 1011.8 |
| 20260507201423 | 12 | 26 | 4.8 | 11.3 | 0.00 | 0.00 | 0.00 | 53 | 1011.9 |
| 20260507201102 | 11 | 37 | 4.8 | 11.3 | 0.00 | 0.00 | 0.00 | 55 | 1011.8 |
| 20260507200923 | 11 | 39 | 4.8 | 11.3 | 0.00 | 0.00 | 0.00 | 56 | 1011.6 |
| 20260507200802 | 11 | 40 | 4.8 | 11.3 | 0.00 | 0.00 | 0.00 | 55 | 1011.5 |
| 20260507200602 | 11 | 36 | 4.8 | 11.3 | 0.00 | 0.00 | 0.00 | 54 | 1011.7 |
| 20260507200402 | 11 | 31 | 4.8 | 11.3 | 0.00 | 0.00 | 0.00 | 56 | 1011.7 |
| 20260507200202 | 11 | 35 | 4.8 | 11.3 | 0.00 | 0.00 | 0.00 | 54 | 1011.5 |
| 20260507195602 | 12 | 353 | 4.8 | 11.3 | 0.00 | 0.00 | 0.00 | 54 | 1011.6 |
| 20260507195502 | 12 | 337 | 4.8 | 11.3 | 0.00 | 0.00 | 0.00 | 53 | 1011.9 |
| 20260507195305 | 12 | 335 | 4.8 | 11.3 | 0.00 | 0.00 | 0.00 | 56 | 1011.8 |
| 20260507195102 | 12 | 340 | 4.8 | 12.9 | 0.00 | 0.00 | 0.00 | 54 | 1011.8 |
| 20260507195002 | 12 | 338 | 4.8 | 12.9 | 0.00 | 0.00 | 0.00 | 55 | 1011.6 |
| 20260507194902 | 12 | 353 | 4.8 | 12.9 | 0.00 | 0.00 | 0.00 | 55 | 1011.9 |
| 20260507194802 | 12 | 340 | 4.8 | 12.9 | 0.00 | 0.00 | 0.00 | 54 | 1011.7 |
| 20260507194202 | 12 | 42 | 4.8 | 14.5 | 0.00 | 0.00 | 0.00 | 53 | 1011.9 |
| 20260507194102 | 12 | 72 | 4.8 | 14.5 | 0.00 | 0.00 | 0.00 | 53 | 1011.8 |
| 20260507194002 | 12 | 20 | 4.8 | 14.5 | 0.00 | 0.00 | 0.00 | 54 | 1011.7 |
| 20260507193702 | 12 | 40 | 4.8 | 14.5 | 0.00 | 0.00 | 0.00 | 52 | 1012.0 |
| 20260507193602 | 12 | 44 | 4.8 | 14.5 | 0.00 | 0.00 | 0.00 | 55 | 1011.9 |
| 20260507193423 | 12 | 9 | 4.8 | 14.5 | 0.00 | 0.00 | 0.00 | 54 | 1011.9 |
| 20260507193202 | 12 | 18 | 4.8 | 12.9 | 0.00 | 0.00 | 0.00 | 56 | 1011.9 |
| 20260507193102 | 12 | 22 | 4.8 | 12.9 | 0.00 | 0.00 | 0.00 | 52 | 1011.8 |
| 20260507192902 | 12 | 18 | 6.4 | 12.9 | 0.00 | 0.00 | 0.00 | 52 | 1012.2 |
| 20260507192802 | 12 | 14 | 6.4 | 12.9 | 0.00 | 0.00 | 0.00 | 51 | 1012.0 |
| 20260507192402 | 12 | 348 | 4.8 | 12.9 | 0.00 | 0.00 | 0.00 | 53 | 1011.9 |
| 20260507192305 | 12 | 354 | 4.8 | 12.9 | 0.00 | 0.00 | 0.00 | 53 | 1012.2 |
| 20260507192102 | 12 | 334 | 4.8 | 12.9 | 0.00 | 0.00 | 0.00 | 53 | 1012.0 |
| 20260507192002 | 12 | 344 | 4.8 | 12.9 | 0.00 | 0.00 | 0.00 | 54 | 1012.0 |
| 20260507191902 | 12 | 16 | 4.8 | 12.9 | 0.00 | 0.00 | 0.00 | 53 | 1012.0 |
| 20260507191602 | 12 | 343 | 6.4 | 12.9 | 0.00 | 0.00 | 0.00 | 52 | 1011.9 |
| 20260507191423 | 13 | 8 | 4.8 | 11.3 | 0.00 | 0.00 | 0.00 | 51 | 1012.2 |
| 20260507191302 | 13 | 13 | 4.8 | 11.3 | 0.00 | 0.00 | 0.00 | 50 | 1011.9 |
| 20260507191102 | 12 | 10 | 4.8 | 11.3 | 0.00 | 0.00 | 0.00 | 50 | 1011.8 |
| 20260507191002 | 12 | 4 | 4.8 | 11.3 | 0.00 | 0.00 | 0.00 | 52 | 1011.9 |
| 20260507190702 | 12 | 21 | 4.8 | 9.7 | 0.00 | 0.00 | 0.00 | 51 | 1012.2 |
| 20260507190502 | 12 | 2 | 4.8 | 17.7 | 0.00 | 0.00 | 0.00 | 52 | 1012.2 |
| 20260507190402 | 11 | 360 | 6.4 | 17.7 | 0.00 | 0.00 | 0.00 | 51 | 1012.2 |
| 20260507190303 | 11 | 346 | 6.4 | 17.7 | 0.00 | 0.00 | 0.00 | 53 | 1012.3 |
| 20260507190202 | 11 | 343 | 6.4 | 17.7 | 0.00 | 0.00 | 0.00 | 51 | 1012.0 |
| 20260507190004 | 11 | 355 | 4.8 | 17.7 | 0.00 | 0.00 | 0.00 | 52 | 1012.2 |
| 20260507185902 | 11 | 354 | 4.8 | 17.7 | 0.00 | 0.00 | 0.00 | 52 | 1012.0 |
| 20260507185723 | 12 | 329 | 4.8 | 17.7 | 0.00 | 0.00 | 0.00 | 52 | 1012.3 |
| 20260507185623 | 12 | 333 | 4.8 | 17.7 | 0.00 | 0.00 | 0.00 | 53 | 1011.9 |
| 20260507185502 | 12 | 11 | 4.8 | 14.5 | 0.00 | 0.00 | 0.00 | 50 | 1011.9 |
| 20260507185423 | 12 | 3 | 4.8 | 14.5 | 0.00 | 0.00 | 0.00 | 51 | 1012.0 |
| 20260507185305 | 11 | 15 | 4.8 | 14.5 | 0.00 | 0.00 | 0.00 | 53 | 1012.0 |
| 20260507185102 | 11 | 359 | 6.4 | 14.5 | 0.00 | 0.00 | 0.00 | 52 | 1012.3 |
| 20260507185002 | 11 | 355 | 6.4 | 14.5 | 0.00 | 0.00 | 0.00 | 51 | 1012.2 |
| 20260507184902 | 11 | 2 | 6.4 | 14.5 | 0.00 | 0.00 | 0.00 | 50 | 1012.3 |
| 20260507184802 | 11 | 13 | 6.4 | 14.5 | 0.00 | 0.00 | 0.00 | 50 | 1012.2 |
| 20260507184102 | 11 | 12 | 6.4 | 16.1 | 0.00 | 0.00 | 0.00 | 50 | 1012.3 |
| 20260507183902 | 11 | 8 | 6.4 | 16.1 | 0.00 | 0.00 | 0.00 | 51 | 1012.3 |
| 20260507183702 | 11 | 3 | 6.4 | 16.1 | 0.00 | 0.00 | 0.00 | 51 | 1012.3 |
| 20260507183602 | 11 | 357 | 6.4 | 16.1 | 0.00 | 0.00 | 0.00 | 51 | 1012.3 |
| 20260507182902 | 12 | 26 | 6.4 | 14.5 | 0.00 | 0.00 | 0.00 | 51 | 1012.0 |
| 20260507182602 | 12 | 35 | 4.8 | 12.9 | 0.00 | 0.00 | 0.00 | 48 | 1012.0 |
| 20260507182523 | 12 | 50 | 4.8 | 12.9 | 0.00 | 0.00 | 0.00 | 49 | 1012.3 |
| 20260507182402 | 12 | 52 | 4.8 | 14.5 | 0.00 | 0.00 | 0.00 | 49 | 1012.3 |
| 20260507182102 | 12 | 21 | 4.8 | 14.5 | 0.00 | 0.00 | 0.00 | 49 | 1012.3 |
| 20260507181802 | 11 | 31 | 4.8 | 14.5 | 0.00 | 0.00 | 0.00 | 50 | 1012.3 |
| 20260507181623 | 11 | 29 | 4.8 | 14.5 | 0.00 | 0.00 | 0.00 | 51 | 1012.3 |
| 20260507181502 | 11 | 17 | 6.4 | 14.5 | 0.00 | 0.00 | 0.00 | 49 | 1012.3 |
| 20260507181202 | 11 | 10 | 6.4 | 16.1 | 0.00 | 0.00 | 0.00 | 49 | 1012.2 |
| 20260507181102 | 11 | 16 | 6.4 | 16.1 | 0.00 | 0.00 | 0.00 | 52 | 1012.3 |
| 20260507180702 | 11 | 1 | 8.0 | 16.1 | 0.00 | 0.00 | 0.00 | 51 | 1012.2 |
| 20260507180623 | 11 | 354 | 8.0 | 16.1 | 0.00 | 0.00 | 0.00 | 49 | 1012.3 |
| 20260507180402 | 11 | 344 | 8.0 | 16.1 | 0.00 | 0.00 | 0.00 | 50 | 1012.2 |
| 20260507180302 | 12 | 348 | 8.0 | 16.1 | 0.00 | 0.00 | 0.00 | 50 | 1012.2 |
| 20260507175802 | 12 | 310 | 8.0 | 17.7 | 0.00 | 0.00 | 0.00 | 52 | 1012.2 |
| 20260507175502 | 12 | 323 | 8.0 | 17.7 | 0.00 | 0.00 | 0.00 | 52 | 1012.4 |
| 20260507175306 | 12 | 314 | 8.0 | 17.7 | 0.00 | 0.00 | 0.00 | 50 | 1012.5 |
| 20260507175123 | 12 | 338 | 6.4 | 16.1 | 0.00 | 0.00 | 0.00 | 52 | 1012.2 |
| 20260507175002 | 13 | 343 | 6.4 | 16.1 | 0.00 | 0.00 | 0.00 | 52 | 1012.2 |
| 20260507174902 | 13 | 354 | 6.4 | 16.1 | 0.00 | 0.00 | 0.00 | 49 | 1012.4 |
| 20260507174702 | 13 | 9 | 6.4 | 16.1 | 0.00 | 0.00 | 0.00 | 50 | 1012.2 |
| 20260507174623 | 12 | 8 | 6.4 | 12.9 | 0.00 | 0.00 | 0.00 | 53 | 1012.2 |
| 20260507174402 | 12 | 24 | 6.4 | 12.9 | 0.00 | 0.00 | 0.00 | 52 | 1012.3 |
| 20260507174302 | 12 | 26 | 6.4 | 16.1 | 0.00 | 0.00 | 0.00 | 50 | 1012.3 |
| 20260507174123 | 12 | 33 | 6.4 | 16.1 | 0.00 | 0.00 | 0.00 | 50 | 1012.2 |
| 20260507173502 | 12 | 16 | 6.4 | 17.7 | 0.00 | 0.00 | 0.00 | 52 | 1012.3 |
| 20260507173423 | 12 | 3 | 6.4 | 17.7 | 0.00 | 0.00 | 0.00 | 50 | 1012.3 |
| 20260507173002 | 12 | 336 | 6.4 | 14.5 | 0.00 | 0.00 | 0.00 | 52 | 1012.5 |
| 20260507172902 | 12 | 320 | 6.4 | 14.5 | 0.00 | 0.00 | 0.00 | 53 | 1012.3 |
| 20260507172602 | 12 | 301 | 8.0 | 16.1 | 0.00 | 0.00 | 0.00 | 52 | 1012.5 |
| 20260507172523 | 12 | 299 | 8.0 | 16.1 | 0.00 | 0.00 | 0.00 | 52 | 1012.4 |
| 20260507172323 | 12 | 305 | 8.0 | 16.1 | 0.00 | 0.00 | 0.00 | 54 | 1012.3 |
| 20260507172202 | 12 | 296 | 6.4 | 16.1 | 0.00 | 0.00 | 0.00 | 53 | 1012.4 |
| 20260507172123 | 12 | 296 | 6.4 | 16.1 | 0.00 | 0.00 | 0.00 | 51 | 1012.4 |
| 20260507172002 | 12 | 286 | 6.4 | 16.1 | 0.00 | 0.00 | 0.00 | 53 | 1012.4 |
| 20260507171902 | 12 | 286 | 6.4 | 16.1 | 0.00 | 0.00 | 0.00 | 58 | 1012.3 |
| 20260507171802 | 12 | 294 | 6.4 | 16.1 | 0.00 | 0.00 | 0.00 | 54 | 1012.3 |
| 20260507171702 | 12 | 295 | 4.8 | 16.1 | 0.00 | 0.00 | 0.00 | 53 | 1012.2 |
| 20260507171623 | 12 | 307 | 4.8 | 16.1 | 0.00 | 0.00 | 0.00 | 54 | 1012.3 |
| 20260507171502 | 12 | 297 | 4.8 | 11.3 | 0.00 | 0.00 | 0.00 | 54 | 1012.4 |
| 20260507171423 | 12 | 294 | 4.8 | 11.3 | 0.00 | 0.00 | 0.00 | 55 | 1012.5 |
| 20260507171202 | 12 | 329 | 4.8 | 11.3 | 0.00 | 0.00 | 0.00 | 56 | 1012.4 |
| 20260507171102 | 12 | 339 | 4.8 | 11.3 | 0.00 | 0.00 | 0.00 | 56 | 1012.4 |
| 20260507170902 | 11 | 3 | 4.8 | 14.5 | 0.00 | 0.00 | 0.00 | 58 | 1012.5 |
| 20260507170802 | 11 | 345 | 6.4 | 17.7 | 0.00 | 0.00 | 0.00 | 58 | 1012.5 |
| 20260507170602 | 12 | 347 | 6.4 | 17.7 | 0.00 | 0.00 | 0.00 | 56 | 1012.3 |
| 20260507170502 | 12 | 358 | 6.4 | 17.7 | 0.00 | 0.00 | 0.00 | 57 | 1012.5 |
| 20260507170402 | 11 | 349 | 6.4 | 17.7 | 0.00 | 0.00 | 0.00 | 58 | 1012.6 |
| 20260507170002 | 12 | 340 | 8.0 | 17.7 | 0.00 | 0.00 | 0.00 | 55 | 1012.4 |
| 20260507165402 | 13 | 307 | 6.4 | 17.7 | 0.00 | 0.00 | 0.00 | 54 | 1012.3 |
| 20260507165102 | 13 | 276 | 8.0 | 17.7 | 0.00 | 0.00 | 0.00 | 54 | 1012.3 |
| 20260507164902 | 12 | 270 | 8.0 | 17.7 | 0.00 | 0.00 | 0.00 | 56 | 1012.4 |
| 20260507164602 | 12 | 290 | 8.0 | 17.7 | 0.00 | 0.00 | 0.00 | 56 | 1012.4 |
| 20260507164423 | 12 | 302 | 8.0 | 17.7 | 0.00 | 0.00 | 0.00 | 55 | 1012.4 |
| 20260507164202 | 12 | 343 | 6.4 | 14.5 | 0.00 | 0.00 | 0.00 | 56 | 1012.4 |
| 20260507164102 | 12 | 7 | 6.4 | 12.9 | 0.00 | 0.00 | 0.00 | 56 | 1012.6 |
| 20260507164002 | 11 | 19 | 6.4 | 12.9 | 0.00 | 0.00 | 0.00 | 58 | 1012.6 |
| 20260507163602 | 12 | 334 | 6.4 | 16.1 | 0.00 | 0.00 | 0.00 | 57 | 1012.4 |
| 20260507163102 | 12 | 334 | 6.4 | 16.1 | 0.00 | 0.00 | 0.00 | 58 | 1012.7 |
| 20260507162902 | 12 | 316 | 6.4 | 16.1 | 0.00 | 0.00 | 0.00 | 56 | 1012.6 |
| 20260507162502 | 12 | 333 | 6.4 | 16.1 | 0.00 | 0.00 | 0.00 | 56 | 1012.2 |
| 20260507162402 | 12 | 343 | 6.4 | 16.1 | 0.00 | 0.00 | 0.00 | 57 | 1012.2 |
| 20260507162306 | 12 | 334 | 6.4 | 16.1 | 0.00 | 0.00 | 0.00 | 56 | 1012.4 |
| 20260507162102 | 11 | 306 | 8.0 | 17.7 | 0.00 | 0.00 | 0.00 | 55 | 1012.3 |
| 20260507161702 | 12 | 294 | 8.0 | 17.7 | 0.00 | 0.00 | 0.00 | 54 | 1012.3 |
| 20260507161602 | 12 | 286 | 8.0 | 17.7 | 0.00 | 0.00 | 0.00 | 53 | 1012.3 |
| 20260507161502 | 12 | 279 | 9.7 | 17.7 | 0.00 | 0.00 | 0.00 | 53 | 1012.3 |
| 20260507161102 | 12 | 284 | 8.0 | 17.7 | 0.00 | 0.00 | 0.00 | 53 | 1012.2 |
| 20260507160902 | 12 | 283 | 8.0 | 17.7 | 0.00 | 0.00 | 0.00 | 52 | 1012.3 |
| 20260507160802 | 13 | 291 | 8.0 | 17.7 | 0.00 | 0.00 | 0.00 | 50 | 1012.3 |
| 20260507160602 | 13 | 319 | 6.4 | 16.1 | 0.00 | 0.00 | 0.00 | 43 | 1012.4 |
| 20260507160002 | 13 | 331 | 4.8 | 12.9 | 0.00 | 0.00 | 0.00 | 45 | 1012.3 |
| 20260507155703 | 12 | 248 | 3.2 | 12.9 | 0.00 | 0.00 | 0.00 | 44 | 1012.3 |
| 20260507155602 | 12 | 70 | 3.2 | 12.9 | 0.00 | 0.00 | 0.00 | 46 | 1012.5 |
| 20260507155402 | 12 | 135 | 3.2 | 12.9 | 0.00 | 0.00 | 0.00 | 46 | 1012.4 |
| 20260507155102 | 13 | 334 | 3.2 | 6.4 | 0.00 | 0.00 | 0.00 | 45 | 1012.2 |
| 20260507154802 | 13 | 282 | 3.2 | 12.9 | 0.00 | 0.00 | 0.00 | 44 | 1012.3 |
| 20260507154402 | 13 | 271 | 6.4 | 14.5 | 0.00 | 0.00 | 0.00 | 43 | 1012.3 |
| 20260507154102 | 12 | 242 | 4.8 | 14.5 | 0.00 | 0.00 | 0.00 | 45 | 1012.5 |
| 20260507154002 | 12 | 230 | 4.8 | 14.5 | 0.00 | 0.00 | 0.00 | 46 | 1012.5 |
| 20260507153602 | 13 | 233 | 4.8 | 16.1 | 0.00 | 0.00 | 0.00 | 44 | 1012.4 |
| 20260507153502 | 13 | 232 | 4.8 | 16.1 | 0.00 | 0.00 | 0.00 | 45 | 1012.6 |
| 20260507153102 | 12 | 229 | 6.4 | 16.1 | 0.00 | 0.00 | 0.00 | 48 | 1012.5 |
| 20260507153002 | 12 | 231 | 6.4 | 16.1 | 0.00 | 0.00 | 0.00 | 47 | 1012.5 |
| 20260507152902 | 12 | 228 | 4.8 | 16.1 | 0.00 | 0.00 | 0.00 | 45 | 1012.6 |
| 20260507152602 | 13 | 211 | 4.8 | 16.1 | 0.00 | 0.00 | 0.00 | 44 | 1012.5 |
| 20260507152502 | 13 | 209 | 4.8 | 16.1 | 0.00 | 0.00 | 0.00 | 45 | 1012.4 |
| 20260507152402 | 13 | 209 | 4.8 | 16.1 | 0.00 | 0.00 | 0.00 | 44 | 1012.6 |
| 20260507152102 | 13 | 210 | 4.8 | 12.9 | 0.00 | 0.00 | 0.00 | 43 | 1012.6 |
| 20260507152002 | 13 | 194 | 3.2 | 12.9 | 0.00 | 0.00 | 0.00 | 44 | 1012.6 |
| 20260507151602 | 13 | 223 | 4.8 | 12.9 | 0.00 | 0.00 | 0.00 | 44 | 1012.6 |
| 20260507151502 | 13 | 236 | 4.8 | 12.9 | 0.00 | 0.00 | 0.00 | 42 | 1012.7 |
| 20260507151223 | 12 | 266 | 4.8 | 12.9 | 0.00 | 0.00 | 0.00 | 44 | 1012.5 |
| 20260507151102 | 12 | 274 | 4.8 | 12.9 | 0.00 | 0.00 | 0.00 | 45 | 1012.7 |
| 20260507150602 | 12 | 304 | 3.2 | 11.3 | 0.00 | 0.00 | 0.00 | 46 | 1012.5 |
| 20260507150302 | 12 | 301 | 3.2 | 11.3 | 0.00 | 0.00 | 0.00 | 46 | 1012.6 |
| 20260507145902 | 13 | 293 | 3.2 | 11.3 | 0.00 | 0.00 | 0.00 | 44 | 1012.6 |
| 20260507145402 | 12 | 265 | 4.8 | 12.9 | 0.00 | 0.00 | 0.00 | 45 | 1012.7 |
| 20260507145202 | 12 | 246 | 4.8 | 12.9 | 0.00 | 0.00 | 0.00 | 44 | 1012.6 |
| 20260507145102 | 12 | 225 | 4.8 | 12.9 | 0.00 | 0.00 | 0.00 | 46 | 1012.9 |
| 20260507144902 | 12 | 232 | 4.8 | 12.9 | 0.00 | 0.00 | 0.00 | 47 | 1012.7 |
| 20260507144402 | 12 | 237 | 1.6 | 9.7 | 0.00 | 0.00 | 0.00 | 47 | 1012.6 |
| 20260507144323 | 12 | 34 | 1.6 | 6.4 | 0.00 | 0.00 | 0.00 | 51 | 1012.6 |
| 20260507144202 | 12 | 90 | 1.6 | 6.4 | 0.00 | 0.00 | 0.00 | 49 | 1012.5 |
| 20260507144123 | 12 | 74 | 1.6 | 6.4 | 0.00 | 0.00 | 0.00 | 49 | 1012.7 |
| 20260507143602 | 11 | 82 | 3.2 | 9.7 | 0.00 | 0.00 | 0.00 | 52 | 1012.7 |
| 20260507143402 | 11 | 71 | 3.2 | 9.7 | 0.00 | 0.00 | 0.00 | 51 | 1012.5 |
| 20260507143202 | 11 | 72 | 3.2 | 9.7 | 0.00 | 0.00 | 0.00 | 52 | 1012.7 |
| 20260507143002 | 11 | 42 | 3.2 | 9.7 | 0.00 | 0.00 | 0.00 | 56 | 1012.7 |
| 20260507142902 | 11 | 38 | 3.2 | 9.7 | 0.00 | 0.00 | 0.00 | 53 | 1012.6 |
| 20260507142802 | 11 | 53 | 3.2 | 9.7 | 0.00 | 0.00 | 0.00 | 58 | 1012.5 |
| 20260507142602 | 11 | 56 | 3.2 | 9.7 | 0.00 | 0.00 | 0.00 | 58 | 1012.6 |
| 20260507142423 | 11 | 55 | 3.2 | 9.7 | 0.00 | 0.00 | 0.00 | 58 | 1012.6 |
| 20260507142306 | 11 | 48 | 3.2 | 9.7 | 0.00 | 0.00 | 0.00 | 57 | 1012.7 |
| 20260507142202 | 11 | 47 | 3.2 | 9.7 | 0.00 | 0.00 | 0.00 | 57 | 1012.8 |
| 20260507142102 | 11 | 66 | 3.2 | 9.7 | 0.00 | 0.00 | 0.00 | 55 | 1012.8 |
| 20260507142023 | 11 | 103 | 3.2 | 9.7 | 0.00 | 0.00 | 0.00 | 56 | 1012.8 |
| 20260507141902 | 11 | 177 | 3.2 | 9.7 | 0.00 | 0.00 | 0.00 | 57 | 1012.8 |
| 20260507141802 | 11 | 209 | 3.2 | 9.7 | 0.00 | 0.00 | 0.00 | 57 | 1012.7 |
| 20260507141702 | 11 | 228 | 3.2 | 9.7 | 0.00 | 0.00 | 0.00 | 58 | 1012.8 |
| 20260507141602 | 11 | 235 | 3.2 | 9.7 | 0.00 | 0.00 | 0.00 | 58 | 1012.8 |
| 20260507141302 | 11 | 223 | 3.2 | 9.7 | 0.00 | 0.00 | 0.00 | 59 | 1012.7 |
| 20260507141102 | 11 | 225 | 3.2 | 9.7 | 0.00 | 0.00 | 0.00 | 57 | 1012.9 |
| 20260507141002 | 11 | 258 | 3.2 | 9.7 | 0.00 | 0.00 | 0.00 | 57 | 1013.0 |
| 20260507140902 | 11 | 337 | 3.2 | 9.7 | 0.00 | 0.00 | 0.00 | 57 | 1012.9 |
| 20260507140623 | 11 | 60 | 3.2 | 11.3 | 0.00 | 0.00 | 0.00 | 59 | 1013.0 |
| 20260507140523 | 11 | 51 | 3.2 | 11.3 | 0.00 | 0.00 | 0.00 | 60 | 1012.9 |
| 20260507140403 | 11 | 1 | 3.2 | 11.3 | 0.00 | 0.00 | 0.00 | 60 | 1012.9 |
| 20260507140302 | 11 | 335 | 4.8 | 11.3 | 0.00 | 0.00 | 0.00 | 60 | 1012.8 |
| 20260507135802 | 10 | 294 | 4.8 | 11.3 | 0.00 | 0.00 | 0.00 | 61 | 1013.1 |
| 20260507135603 | 10 | 311 | 3.2 | 9.7 | 0.00 | 0.00 | 0.00 | 59 | 1013.0 |
| 20260507135502 | 10 | 328 | 3.2 | 9.7 | 0.00 | 0.00 | 0.00 | 61 | 1013.0 |
| 20260507135423 | 11 | 344 | 3.2 | 9.7 | 0.00 | 0.00 | 0.00 | 62 | 1013.1 |
| 20260507134902 | 11 | 19 | 3.2 | 9.7 | 0.00 | 0.00 | 0.00 | 61 | 1013.1 |
| 20260507134802 | 11 | 172 | 3.2 | 9.7 | 0.00 | 0.00 | 0.00 | 62 | 1013.2 |
| 20260507134602 | 11 | 183 | 3.2 | 9.7 | 0.00 | 0.00 | 0.00 | 62 | 1013.0 |
| 20260507133802 | 11 | 141 | 1.6 | 6.4 | 0.00 | 0.00 | 0.00 | 61 | 1013.2 |
| 20260507133702 | 11 | 136 | 1.6 | 6.4 | 0.00 | 0.00 | 0.00 | 61 | 1013.1 |
| 20260507133623 | 11 | 135 | 1.6 | 6.4 | 0.00 | 0.00 | 0.00 | 61 | 1013.2 |
| 20260507133523 | 11 | 129 | 1.6 | 4.8 | 0.00 | 0.00 | 0.00 | 61 | 1013.1 |
| 20260507133102 | 11 | 99 | 1.6 | 4.8 | 0.00 | 0.00 | 0.00 | 63 | 1013.4 |
| 20260507133002 | 11 | 87 | 1.6 | 4.8 | 0.00 | 0.00 | 0.00 | 63 | 1013.4 |
| 20260507132902 | 10 | 64 | 1.6 | 6.4 | 0.00 | 0.00 | 0.00 | 63 | 1013.3 |
| 20260507132802 | 10 | 56 | 1.6 | 6.4 | 0.00 | 0.00 | 0.00 | 66 | 1013.5 |
| 20260507132202 | 9 | 55 | 1.6 | 6.4 | 0.00 | 0.00 | 0.00 | 67 | 1013.3 |
| 20260507132102 | 9 | 54 | 1.6 | 6.4 | 0.00 | 0.00 | 0.00 | 67 | 1013.2 |
| 20260507132002 | 10 | 53 | 1.6 | 6.4 | 0.00 | 0.00 | 0.00 | 66 | 1013.3 |
| 20260507131902 | 9 | 72 | 1.6 | 6.4 | 0.00 | 0.00 | 0.00 | 67 | 1013.2 |
| 20260507131802 | 9 | 81 | 1.6 | 6.4 | 0.00 | 0.00 | 0.00 | 67 | 1013.4 |
| 20260507131302 | 10 | 127 | 1.6 | 4.8 | 0.00 | 0.00 | 0.00 | 67 | 1013.3 |
| 20260507131102 | 10 | 115 | 1.6 | 3.2 | 0.00 | 0.00 | 0.00 | 67 | 1013.4 |
| 20260507130902 | 9 | 121 | 1.6 | 3.2 | 0.00 | 0.00 | 0.00 | 66 | 1013.2 |
| 20260507130602 | 9 | 122 | 1.6 | 4.8 | 0.00 | 0.00 | 0.00 | 67 | 1013.5 |
| 20260507130402 | 9 | 108 | 1.6 | 4.8 | 0.00 | 0.00 | 0.00 | 71 | 1013.4 |
| 20260507130123 | 9 | 94 | 1.6 | 4.8 | 0.00 | 0.00 | 0.00 | 70 | 1013.4 |
| 20260507125923 | 9 | 97 | 1.6 | 4.8 | 0.00 | 0.00 | 0.00 | 70 | 1013.4 |
| 20260507125602 | 9 | 95 | 1.6 | 3.2 | 0.00 | 0.00 | 0.00 | 71 | 1013.3 |
| 20260507125402 | 9 | 95 | 1.6 | 3.2 | 0.00 | 0.00 | 0.00 | 72 | 1013.3 |
| 20260507125102 | 9 | 100 | 1.6 | 4.8 | 0.00 | 0.00 | 0.00 | 71 | 1013.3 |
| 20260507124902 | 8 | 103 | 1.6 | 4.8 | 0.00 | 0.00 | 0.00 | 72 | 1013.2 |
| 20260507124602 | 8 | 116 | 3.2 | 9.7 | 0.00 | 0.00 | 0.00 | 72 | 1013.5 |
| 20260507124402 | 8 | 109 | 3.2 | 9.7 | 0.00 | 0.00 | 0.00 | 73 | 1013.2 |
| 20260507124302 | 8 | 107 | 3.2 | 9.7 | 0.00 | 0.00 | 0.00 | 73 | 1013.4 |
| 20260507124102 | 8 | 111 | 3.2 | 9.7 | 0.00 | 0.00 | 0.00 | 74 | 1013.4 |
| 20260507124002 | 8 | 110 | 3.2 | 9.7 | 0.00 | 0.00 | 0.00 | 73 | 1013.5 |
| 20260507123902 | 8 | 102 | 3.2 | 9.7 | 0.00 | 0.00 | 0.00 | 72 | 1013.4 |
| 20260507123702 | 8 | 97 | 1.6 | 6.4 | 0.00 | 0.00 | 0.00 | 72 | 1013.3 |
| 20260507123602 | 8 | 123 | 1.6 | 4.8 | 0.00 | 0.00 | 0.00 | 73 | 1013.4 |
| 20260507123423 | 8 | 143 | 1.6 | 4.8 | 0.00 | 0.00 | 0.00 | 73 | 1013.4 |
| 20260507123302 | 8 | 144 | 1.6 | 4.8 | 0.00 | 0.00 | 0.00 | 73 | 1013.3 |
| 20260507123223 | 8 | 142 | 1.6 | 4.8 | 0.00 | 0.00 | 0.00 | 73 | 1013.3 |
| 20260507123102 | 8 | 143 | 1.6 | 4.8 | 0.00 | 0.00 | 0.00 | 73 | 1013.4 |
| 20260507122902 | 8 | 150 | 1.6 | 4.8 | 0.00 | 0.00 | 0.00 | 71 | 1013.3 |
| 20260507122702 | 8 | 144 | 1.6 | 4.8 | 0.00 | 0.00 | 0.00 | 72 | 1013.2 |
| 20260507122602 | 8 | 142 | 1.6 | 4.8 | 0.00 | 0.00 | 0.00 | 72 | 1013.0 |
| 20260507122502 | 8 | 139 | 1.6 | 4.8 | 0.00 | 0.00 | 0.00 | 72 | 1013.2 |
| 20260507122423 | 8 | 135 | 1.6 | 4.8 | 0.00 | 0.00 | 0.00 | 72 | 1013.1 |
| 20260507122102 | 8 | 146 | 1.6 | 4.8 | 0.00 | 0.00 | 0.00 | 73 | 1013.1 |
| 20260507121302 | 8 | 144 | 1.6 | 4.8 | 0.00 | 0.00 | 0.00 | 74 | 1013.1 |
| 20260507121202 | 8 | 137 | 1.6 | 4.8 | 0.00 | 0.00 | 0.00 | 74 | 1013.1 |
| 20260507121123 | 8 | 134 | 1.6 | 4.8 | 0.00 | 0.00 | 0.00 | 75 | 1013.1 |
| 20260507121002 | 8 | 133 | 1.6 | 4.8 | 0.00 | 0.00 | 0.00 | 75 | 1013.2 |
| 20260507120602 | 7 | 128 | 1.6 | 3.2 | 0.00 | 0.00 | 0.00 | 76 | 1013.1 |
| 20260507115902 | 7 | 132 | 1.6 | 4.8 | 0.00 | 0.00 | 0.00 | 77 | 1013.1 |
| 20260507115802 | 7 | 131 | 3.2 | 4.8 | 0.00 | 0.00 | 0.00 | 77 | 1013.1 |
| 20260507115602 | 7 | 132 | 3.2 | 4.8 | 0.00 | 0.00 | 0.00 | 77 | 1013.2 |
| 20260507115502 | 7 | 132 | 3.2 | 4.8 | 0.00 | 0.00 | 0.00 | 77 | 1013.0 |
| 20260507115306 | 6 | 130 | 1.6 | 4.8 | 0.00 | 0.00 | 0.00 | 78 | 1013.1 |
| 20260507115202 | 6 | 130 | 3.2 | 4.8 | 0.00 | 0.00 | 0.00 | 78 | 1013.1 |
| 20260507115102 | 6 | 128 | 3.2 | 4.8 | 0.00 | 0.00 | 0.00 | 79 | 1012.9 |
| 20260507114902 | 6 | 129 | 1.6 | 4.8 | 0.00 | 0.00 | 0.00 | 79 | 1013.0 |
| 20260507114823 | 6 | 128 | 1.6 | 4.8 | 0.00 | 0.00 | 0.00 | 79 | 1013.1 |
| 20260507114623 | 6 | 126 | 1.6 | 4.8 | 0.00 | 0.00 | 0.00 | 80 | 1013.1 |
| 20260507114502 | 6 | 123 | 1.6 | 4.8 | 0.00 | 0.00 | 0.00 | 80 | 1013.1 |
| 20260507114402 | 6 | 123 | 1.6 | 4.8 | 0.00 | 0.00 | 0.00 | 80 | 1013.1 |
| 20260507114302 | 6 | 123 | 1.6 | 4.8 | 0.00 | 0.00 | 0.00 | 81 | 1013.2 |
| 20260507114202 | 6 | 123 | 1.6 | 3.2 | 0.00 | 0.00 | 0.00 | 81 | 1013.0 |
| 20260507114123 | 6 | 124 | 1.6 | 3.2 | 0.00 | 0.00 | 0.00 | 82 | 1013.0 |
| 20260507114002 | 6 | 123 | 1.6 | 3.2 | 0.00 | 0.00 | 0.00 | 82 | 1013.1 |
| 20260507113702 | 6 | 121 | 1.6 | 3.2 | 0.00 | 0.00 | 0.00 | 82 | 1013.1 |
| 20260507113302 | 5 | 118 | 1.6 | 3.2 | 0.00 | 0.00 | 0.00 | 84 | 1013.3 |
| 20260507113102 | 5 | 113 | 0.0 | 3.2 | 0.00 | 0.00 | 0.00 | 85 | 1013.1 |
| 20260507112602 | 5 | 109 | 0.0 | 3.2 | 0.00 | 0.00 | 0.00 | 87 | 1013.0 |
| 20260507112523 | 5 | 110 | 0.0 | 3.2 | 0.00 | 0.00 | 0.00 | 87 | 1013.1 |
| 20260507112402 | 5 | 112 | 0.0 | 3.2 | 0.00 | 0.00 | 0.00 | 87 | 1013.0 |
| 20260507112102 | 5 | 114 | 0.0 | 3.2 | 0.00 | 0.00 | 0.00 | 88 | 1012.9 |
| 20260507111823 | 5 | 113 | 0.0 | 3.2 | 0.00 | 0.00 | 0.00 | 88 | 1013.1 |
| 20260507111603 | 4 | 119 | 0.0 | 3.2 | 0.00 | 0.00 | 0.00 | 88 | 1013.1 |
| 20260507111503 | 4 | 119 | 0.0 | 1.6 | 0.00 | 0.00 | 0.00 | 89 | 1013.0 |
| 20260507111402 | 4 | 118 | 0.0 | 1.6 | 0.00 | 0.00 | 0.00 | 89 | 1013.0 |
| 20260507111302 | 4 | 118 | 0.0 | 1.6 | 0.00 | 0.00 | 0.00 | 89 | 1013.0 |
| 20260507111002 | 4 | 118 | 0.0 | 1.6 | 0.00 | 0.00 | 0.00 | 89 | 1013.1 |
| 20260507110702 | 4 | 114 | 0.0 | 1.6 | 0.00 | 0.00 | 0.00 | 89 | 1013.0 |
| 20260507110602 | 4 | 112 | 0.0 | 1.6 | 0.00 | 0.00 | 0.00 | 89 | 1012.9 |
| 20260507110502 | 4 | 111 | 0.0 | 1.6 | 0.00 | 0.00 | 0.00 | 89 | 1012.9 |
| 20260507110402 | 4 | 112 | 0.0 | 1.6 | 0.00 | 0.00 | 0.00 | 89 | 1013.1 |
| 20260507110302 | 4 | 112 | 0.0 | 1.6 | 0.00 | 0.00 | 0.00 | 89 | 1013.1 |
| 20260507110003 | 4 | 111 | 0.0 | 1.6 | 0.00 | 0.00 | 0.00 | 89 | 1013.0 |
| 20260507105923 | 4 | 111 | 0.0 | 1.6 | 0.00 | 0.00 | 0.00 | 89 | 1013.0 |
| 20260507105602 | 4 | 114 | 0.0 | 1.6 | 0.00 | 0.00 | 0.00 | 89 | 1013.0 |
| 20260507105502 | 4 | 113 | 0.0 | 1.6 | 0.00 | 0.00 | 0.00 | 89 | 1012.8 |
| 20260507105402 | 4 | 112 | 0.0 | 1.6 | 0.00 | 0.00 | 0.00 | 89 | 1012.9 |
| 20260507105306 | 4 | 112 | 0.0 | 1.6 | 0.00 | 0.00 | 0.00 | 89 | 1012.8 |
| 20260507105102 | 4 | 110 | 0.0 | 1.6 | 0.00 | 0.00 | 0.00 | 89 | 1013.1 |
| 20260507104723 | 4 | 108 | 0.0 | 1.6 | 0.00 | 0.00 | 0.00 | 89 | 1012.8 |
| 20260507104402 | 4 | 105 | 0.0 | 1.6 | 0.00 | 0.00 | 0.00 | 90 | 1012.7 |
| 20260507104302 | 4 | 105 | 0.0 | 1.6 | 0.00 | 0.00 | 0.00 | 90 | 1012.9 |
| 20260507104023 | 4 | 105 | 0.0 | 1.6 | 0.00 | 0.00 | 0.00 | 90 | 1012.6 |
| 20260507103402 | 4 | 107 | 0.0 | 1.6 | 0.00 | 0.00 | 0.00 | 90 | 1012.8 |
| 20260507103102 | 4 | 112 | 0.0 | 1.6 | 0.00 | 0.00 | 0.00 | 90 | 1013.0 |
| 20260507102802 | 4 | 113 | 0.0 | 1.6 | 0.00 | 0.00 | 0.00 | 90 | 1012.9 |
| 20260507102702 | 4 | 113 | 0.0 | 1.6 | 0.00 | 0.00 | 0.00 | 90 | 1012.7 |
| 20260507102602 | 4 | 114 | 0.0 | 1.6 | 0.00 | 0.00 | 0.00 | 90 | 1012.6 |
| 20260507102502 | 4 | 117 | 0.0 | 1.6 | 0.00 | 0.00 | 0.00 | 90 | 1012.8 |
| 20260507102402 | 4 | 117 | 0.0 | 1.6 | 0.00 | 0.00 | 0.00 | 90 | 1012.6 |
| 20260507102223 | 4 | 117 | 0.0 | 1.6 | 0.00 | 0.00 | 0.00 | 90 | 1012.9 |
| 20260507102102 | 4 | 113 | 0.0 | 1.6 | 0.00 | 0.00 | 0.00 | 90 | 1012.7 |
| 20260507101802 | 4 | 0 | 0.0 | 0.0 | 0.00 | 0.00 | 0.00 | 89 | 1012.7 |
| 20260507101502 | 4 | 0 | 0.0 | 0.0 | 0.00 | 0.00 | 0.00 | 89 | 1012.7 |
| 20260507100502 | 5 | 0 | 0.0 | 0.0 | 0.00 | 0.00 | 0.00 | 87 | 1012.7 |
| 20260507100402 | 5 | 0 | 0.0 | 0.0 | 0.00 | 0.00 | 0.00 | 87 | 1012.6 |
| 20260507095902 | 5 | 0 | 0.0 | 0.0 | 0.00 | 0.00 | 0.00 | 86 | 1012.6 |
| 20260507095802 | 5 | 0 | 0.0 | 0.0 | 0.00 | 0.00 | 0.00 | 86 | 1012.6 |
| 20260507095623 | 5 | 0 | 0.0 | 0.0 | 0.00 | 0.00 | 0.00 | 86 | 1012.7 |
| 20260507095402 | 5 | 111 | 0.0 | 1.6 | 0.00 | 0.00 | 0.00 | 86 | 1012.7 |
| 20260507095305 | 5 | 113 | 0.0 | 1.6 | 0.00 | 0.00 | 0.00 | 86 | 1012.6 |
| 20260507095102 | 5 | 114 | 0.0 | 1.6 | 0.00 | 0.00 | 0.00 | 86 | 1012.6 |
| 20260507094602 | 5 | 117 | 0.0 | 3.2 | 0.00 | 0.00 | 0.00 | 85 | 1012.8 |
| 20260507094502 | 5 | 118 | 0.0 | 3.2 | 0.00 | 0.00 | 0.00 | 85 | 1012.7 |
| 20260507094402 | 5 | 119 | 0.0 | 3.2 | 0.00 | 0.00 | 0.00 | 85 | 1012.7 |
| 20260507094002 | 5 | 119 | 0.0 | 3.2 | 0.00 | 0.03 | 0.00 | 85 | 1012.8 |
| 20260507093902 | 5 | 119 | 0.0 | 3.2 | 0.00 | 0.03 | 0.00 | 85 | 1012.9 |
| 20260507093602 | 5 | 115 | 1.6 | 4.8 | 0.00 | 0.03 | 0.00 | 85 | 1012.6 |
| 20260507093502 | 5 | 117 | 1.6 | 4.8 | 0.00 | 0.03 | 0.00 | 85 | 1012.5 |
| 20260507093202 | 5 | 115 | 1.6 | 4.8 | 0.00 | 0.03 | 0.00 | 85 | 1012.6 |
| 20260507093102 | 5 | 118 | 1.6 | 4.8 | 0.00 | 0.05 | 0.00 | 85 | 1012.5 |
| 20260507092802 | 5 | 120 | 1.6 | 4.8 | 0.00 | 0.05 | 0.00 | 85 | 1012.7 |
| 20260507092602 | 5 | 120 | 1.6 | 4.8 | 0.00 | 0.05 | 0.00 | 86 | 1012.6 |
| 20260507092423 | 5 | 120 | 1.6 | 4.8 | 0.00 | 0.08 | 0.00 | 86 | 1012.6 |
| 20260507092102 | 5 | 119 | 1.6 | 4.8 | 0.00 | 0.08 | 0.00 | 86 | 1012.7 |
| 20260507092005 | 5 | 118 | 1.6 | 4.8 | 0.00 | 0.10 | 0.00 | 86 | 1012.6 |
| 20260507091902 | 5 | 117 | 1.6 | 4.8 | 0.00 | 0.10 | 0.00 | 86 | 1012.6 |
| 20260507091802 | 5 | 114 | 1.6 | 4.8 | 0.00 | 0.10 | 0.00 | 86 | 1012.9 |
| 20260507091602 | 5 | 114 | 1.6 | 4.8 | 0.00 | 0.10 | 0.00 | 86 | 1012.7 |
| 20260507091423 | 5 | 113 | 1.6 | 3.2 | 0.00 | 0.10 | 0.00 | 86 | 1012.7 |
| 20260507091123 | 5 | 120 | 1.6 | 4.8 | 0.00 | 0.13 | 0.00 | 86 | 1012.7 |
| 20260507091002 | 5 | 118 | 1.6 | 4.8 | 0.00 | 0.13 | 0.00 | 86 | 1012.7 |
| 20260507090802 | 5 | 122 | 1.6 | 4.8 | 0.00 | 0.13 | 0.00 | 86 | 1012.7 |
| 20260507090602 | 5 | 125 | 1.6 | 4.8 | 0.00 | 0.13 | 0.00 | 86 | 1012.6 |
| 20260507090402 | 5 | 123 | 1.6 | 4.8 | 0.00 | 0.13 | 0.00 | 86 | 1012.8 |
| 20260507090302 | 5 | 121 | 1.6 | 4.8 | 0.00 | 0.13 | 0.00 | 86 | 1012.7 |
| 20260507090223 | 5 | 121 | 1.6 | 4.8 | 0.00 | 0.13 | 0.00 | 86 | 1012.9 |
| 20260507085602 | 5 | 120 | 1.6 | 4.8 | 0.00 | 0.15 | 0.00 | 87 | 1013.0 |
| 20260507085402 | 5 | 122 | 1.6 | 4.8 | 0.00 | 0.15 | 0.00 | 87 | 1012.9 |
| 20260507085202 | 5 | 121 | 1.6 | 4.8 | 0.00 | 0.15 | 0.00 | 87 | 1013.0 |
| 20260507085102 | 5 | 121 | 1.6 | 4.8 | 0.00 | 0.15 | 0.00 | 87 | 1012.8 |
| 20260507084902 | 5 | 122 | 1.6 | 4.8 | 0.00 | 0.15 | 0.00 | 87 | 1012.9 |
| 20260507084702 | 5 | 122 | 1.6 | 4.8 | 0.00 | 0.15 | 0.00 | 87 | 1012.9 |
| 20260507084202 | 5 | 0 | 0.0 | 0.0 | 0.00 | 0.15 | 0.00 | 88 | 1012.8 |
| 20260507084102 | 5 | 0 | 0.0 | 0.0 | 0.00 | 0.15 | 0.00 | 88 | 1013.1 |
| 20260507083902 | 5 | 0 | 0.0 | 0.0 | 0.00 | 0.15 | 0.00 | 88 | 1012.8 |
| 20260507083402 | 4 | 103 | 0.0 | 3.2 | 0.00 | 0.15 | 0.00 | 89 | 1013.1 |
| 20260507083302 | 4 | 104 | 0.0 | 3.2 | 0.00 | 0.15 | 0.00 | 89 | 1013.0 |
| 20260507083002 | 4 | 108 | 1.6 | 3.2 | 0.00 | 0.15 | 0.00 | 90 | 1013.0 |
| 20260507082904 | 4 | 108 | 1.6 | 3.2 | 0.00 | 0.18 | 0.00 | 90 | 1013.1 |
| 20260507082602 | 4 | 108 | 0.0 | 3.2 | 0.00 | 0.18 | 0.00 | 90 | 1013.0 |
| 20260507082502 | 4 | 111 | 0.0 | 3.2 | 0.00 | 0.18 | 0.00 | 90 | 1013.0 |
| 20260507082423 | 4 | 111 | 0.0 | 3.2 | 0.00 | 0.18 | 0.00 | 90 | 1013.0 |
| 20260507082202 | 3 | 115 | 0.0 | 3.2 | 0.00 | 0.20 | 0.00 | 90 | 1012.9 |
| 20260507082102 | 3 | 119 | 0.0 | 3.2 | 0.00 | 0.20 | 0.00 | 90 | 1013.0 |
| 20260507081902 | 3 | 118 | 0.0 | 1.6 | 0.00 | 0.20 | 0.00 | 90 | 1013.0 |
| 20260507081602 | 3 | 111 | 0.0 | 3.2 | 0.00 | 0.23 | 0.00 | 89 | 1013.1 |
| 20260507081402 | 4 | 111 | 0.0 | 3.2 | 0.00 | 0.23 | 0.00 | 89 | 1013.0 |
| 20260507081002 | 4 | 114 | 1.6 | 4.8 | 0.00 | 0.25 | 0.00 | 90 | 1013.1 |
| 20260507080702 | 4 | 116 | 1.6 | 4.8 | 0.00 | 0.25 | 0.00 | 90 | 1013.0 |
| 20260507080602 | 4 | 117 | 1.6 | 4.8 | 0.00 | 0.28 | 0.00 | 90 | 1013.1 |
| 20260507080502 | 4 | 117 | 1.6 | 4.8 | 0.00 | 0.28 | 0.00 | 90 | 1013.1 |
| 20260507080402 | 4 | 116 | 1.6 | 4.8 | 0.00 | 0.28 | 0.00 | 90 | 1013.2 |
| 20260507080323 | 4 | 118 | 1.6 | 4.8 | 0.00 | 0.28 | 0.00 | 90 | 1013.1 |
| 20260507075702 | 4 | 121 | 1.6 | 3.2 | 0.00 | 0.30 | 0.00 | 90 | 1013.0 |
| 20260507075402 | 4 | 120 | 0.0 | 3.2 | 0.00 | 0.30 | 0.00 | 91 | 1012.9 |
| 20260507075124 | 4 | 116 | 1.6 | 4.8 | 0.00 | 0.30 | 0.00 | 91 | 1013.0 |
| 20260507074902 | 4 | 115 | 1.6 | 4.8 | 0.00 | 0.30 | 0.00 | 90 | 1013.0 |
| 20260507074802 | 4 | 110 | 0.0 | 4.8 | 0.00 | 0.33 | 0.00 | 90 | 1013.0 |
| 20260507074602 | 4 | 111 | 0.0 | 4.8 | 0.00 | 0.33 | 0.00 | 90 | 1012.9 |
| 20260507074402 | 4 | 112 | 0.0 | 4.8 | 0.00 | 0.33 | 0.00 | 91 | 1012.9 |
| 20260507074202 | 3 | 115 | 0.0 | 3.2 | 0.00 | 0.33 | 0.00 | 91 | 1013.1 |
| 20260507074123 | 3 | 114 | 0.0 | 3.2 | 0.00 | 0.33 | 0.00 | 91 | 1012.9 |
| 20260507074023 | 3 | 115 | 0.0 | 3.2 | 0.00 | 0.33 | 0.00 | 91 | 1012.9 |
| 20260507073902 | 3 | 116 | 0.0 | 3.2 | 0.00 | 0.36 | 0.00 | 91 | 1013.0 |
| 20260507073724 | 3 | 116 | 0.0 | 3.2 | 0.00 | 0.36 | 0.00 | 90 | 1012.9 |
| 20260507073602 | 4 | 120 | 0.0 | 3.2 | 0.00 | 0.36 | 0.00 | 90 | 1013.1 |
| 20260507072802 | 3 | 124 | 0.0 | 3.2 | 0.00 | 0.38 | 0.00 | 91 | 1013.1 |
| 20260507072702 | 3 | 139 | 0.0 | 1.6 | 0.00 | 0.38 | 0.00 | 91 | 1013.0 |
| 20260507072602 | 3 | 0 | 0.0 | 0.0 | 0.00 | 0.38 | 0.00 | 91 | 1012.9 |
| 20260507072323 | 3 | 0 | 0.0 | 0.0 | 0.00 | 0.38 | 0.00 | 91 | 1013.0 |
| 20260507072202 | 3 | 0 | 0.0 | 0.0 | 0.00 | 0.38 | 0.00 | 91 | 1013.0 |
| 20260507072102 | 3 | 0 | 0.0 | 0.0 | 0.00 | 0.41 | 0.00 | 91 | 1013.0 |
| 20260507072002 | 3 | 0 | 0.0 | 0.0 | 0.00 | 0.41 | 0.00 | 91 | 1013.0 |
| 20260507071903 | 3 | 0 | 0.0 | 0.0 | 0.00 | 0.41 | 0.00 | 91 | 1013.0 |
| 20260507071702 | 3 | 0 | 0.0 | 0.0 | 0.00 | 0.41 | 0.00 | 91 | 1013.1 |
| 20260507071602 | 3 | 0 | 0.0 | 0.0 | 0.00 | 0.41 | 0.00 | 91 | 1013.1 |
| 20260507071503 | 3 | 0 | 0.0 | 0.0 | 0.00 | 0.41 | 0.00 | 91 | 1013.2 |
| 20260507071402 | 3 | 0 | 0.0 | 0.0 | 0.00 | 0.43 | 0.00 | 91 | 1013.1 |
| 20260507071302 | 3 | 0 | 0.0 | 0.0 | 0.00 | 0.43 | 0.00 | 91 | 1013.0 |
| 20260507071223 | 3 | 0 | 0.0 | 0.0 | 0.00 | 0.43 | 0.00 | 91 | 1013.0 |
| 20260507071102 | 3 | 0 | 0.0 | 0.0 | 0.00 | 0.43 | 0.00 | 91 | 1013.2 |
| 20260507071002 | 3 | 0 | 0.0 | 0.0 | 0.00 | 0.43 | 0.00 | 91 | 1013.1 |
| 20260507070602 | 3 | 112 | 0.0 | 3.2 | 0.00 | 0.43 | 0.00 | 91 | 1012.9 |
| 20260507070402 | 3 | 112 | 0.0 | 3.2 | 0.00 | 0.43 | 0.00 | 91 | 1013.1 |
| 20260507070302 | 3 | 112 | 0.0 | 3.2 | 0.00 | 0.43 | 0.00 | 91 | 1013.1 |
| 20260507065823 | 3 | 109 | 0.0 | 3.2 | 0.00 | 0.46 | 0.00 | 91 | 1013.0 |
| 20260507065402 | 3 | 124 | 0.0 | 3.2 | 0.00 | 0.46 | 0.00 | 91 | 1013.4 |
| 20260507065202 | 3 | 130 | 0.0 | 3.2 | 0.00 | 0.46 | 0.00 | 91 | 1013.4 |
| 20260507065102 | 3 | 130 | 0.0 | 3.2 | 0.00 | 0.46 | 0.00 | 91 | 1013.3 |
| 20260507064923 | 3 | 130 | 0.0 | 3.2 | 0.00 | 0.46 | 0.00 | 91 | 1013.4 |
| 20260507064702 | 4 | 130 | 0.0 | 3.2 | 0.00 | 0.46 | 0.00 | 91 | 1013.2 |
| 20260507064623 | 4 | 130 | 0.0 | 3.2 | 0.00 | 0.46 | 0.00 | 91 | 1013.2 |
| 20260507064402 | 4 | 0 | 0.0 | 0.0 | 0.00 | 0.46 | 0.00 | 91 | 1013.2 |
| 20260507063802 | 3 | 0 | 0.0 | 0.0 | 0.00 | 0.46 | 0.00 | 90 | 1013.4 |
| 20260507063502 | 3 | 0 | 0.0 | 0.0 | 0.00 | 0.48 | 0.00 | 90 | 1013.3 |
| 20260507063402 | 3 | 0 | 0.0 | 0.0 | 0.00 | 0.48 | 0.00 | 90 | 1013.3 |
| 20260507063302 | 4 | 0 | 0.0 | 0.0 | 0.00 | 0.48 | 0.00 | 90 | 1013.3 |
| 20260507063102 | 4 | 0 | 0.0 | 0.0 | 0.00 | 0.48 | 0.00 | 90 | 1013.2 |
| 20260507062902 | 4 | 0 | 0.0 | 0.0 | 0.00 | 0.48 | 0.00 | 89 | 1013.5 |
| 20260507062802 | 4 | 0 | 0.0 | 0.0 | 0.00 | 0.48 | 0.00 | 89 | 1013.3 |
| 20260507062702 | 4 | 0 | 0.0 | 0.0 | 0.00 | 0.48 | 0.00 | 89 | 1013.4 |
| 20260507062603 | 4 | 0 | 0.0 | 0.0 | 0.00 | 0.48 | 0.00 | 89 | 1013.4 |
| 20260507062502 | 4 | 0 | 0.0 | 0.0 | 0.00 | 0.48 | 0.00 | 89 | 1013.5 |
| 20260507062402 | 4 | 0 | 0.0 | 0.0 | 0.00 | 0.48 | 0.00 | 89 | 1013.4 |
| 20260507062305 | 4 | 0 | 0.0 | 0.0 | 0.00 | 0.48 | 0.00 | 89 | 1013.3 |
| 20260507062102 | 4 | 0 | 0.0 | 0.0 | 0.00 | 0.48 | 0.00 | 88 | 1013.3 |
| 20260507061902 | 4 | 0 | 0.0 | 0.0 | 0.00 | 0.51 | 0.00 | 88 | 1013.5 |
| 20260507061523 | 4 | 0 | 0.0 | 0.0 | 0.00 | 0.51 | 0.00 | 88 | 1013.6 |
| 20260507061123 | 5 | 115 | 0.0 | 1.6 | 0.00 | 0.53 | 0.00 | 87 | 1013.6 |
| 20260507060902 | 5 | 115 | 0.0 | 1.6 | 0.00 | 0.53 | 0.00 | 87 | 1013.4 |
| 20260507060802 | 5 | 115 | 0.0 | 1.6 | 0.00 | 0.56 | 0.00 | 87 | 1013.4 |
| 20260507060702 | 5 | 116 | 0.0 | 1.6 | 0.00 | 0.56 | 0.00 | 87 | 1013.5 |
| 20260507060402 | 5 | 117 | 0.0 | 1.6 | 0.00 | 0.58 | 0.00 | 86 | 1013.5 |
| 20260507060302 | 5 | 116 | 0.0 | 1.6 | 0.00 | 0.58 | 0.00 | 86 | 1013.6 |
| 20260507060203 | 5 | 121 | 0.0 | 3.2 | 0.00 | 0.58 | 0.00 | 86 | 1013.5 |
| 20260507060002 | 5 | 127 | 0.0 | 3.2 | 0.00 | 0.58 | 0.00 | 86 | 1013.4 |
| 20260507055902 | 5 | 131 | 0.0 | 3.2 | 0.00 | 0.61 | 0.00 | 85 | 1013.6 |
| 20260507055702 | 5 | 130 | 0.0 | 3.2 | 0.00 | 0.61 | 0.00 | 85 | 1013.6 |
| 20260507055402 | 5 | 131 | 0.0 | 3.2 | 0.00 | 0.64 | 0.00 | 85 | 1013.6 |
| 20260507055305 | 5 | 127 | 0.0 | 3.2 | 0.00 | 0.64 | 0.00 | 85 | 1013.7 |